Weather History for HESH - October, 2012

Change the Weather History Date:

Friday, October 5, 2012

  Actual Average Record
Temperature  
Mean Temperature 86 °F -  
Max Temperature 95 °F - - ()
Min Temperature 78 °F - - ()
Cooling Degree Days 22    
Growing Degree Days 36 (Base 50)    
Moisture  
Dew Point 52 °F    
Average Humidity 32    
Maximum Humidity 51    
Minimum Humidity 21    
Precipitation  
Precipitation 0.00 in - - ()
Sea Level Pressure  
Sea Level Pressure 29.83 in    
Wind  
Wind Speed 11 mph ()    
Max Wind Speed 17 mph    
Max Gust Speed -    
Visibility 6.2 miles    
Events      
T = Trace of Precipitation, MM = Missing Value Source: Averaged Metar Reports

Daily Weather History Graph

Daily Weather History Graph

Search for Another Location

Airport or City:

Trip Planner

Search our weather history database for the weather conditions in past years. The results will help you decide how hot, cold, wet, or windy it might be!

Date:

Astronomy

Oct. 05, 2012 Rise Set
Actual Time 5:37 AM EET 5:23 PM EET
Civil Twilight 5:13 AM EET 5:47 PM EET
Nautical Twilight 4:46 AM EET 6:14 PM EET
Astronomical Twilight 4:19 AM EET 6:41 PM EET
Moon 8:53 PM EET (10/5) 10:04 AM EET (10/5)
Length of Visible Light 12h 33m
Length of Day
11h 46m
Waning Gibbous, 76% of the Moon is Illuminated
Oct 5
Waning Gibbous
Oct 8
Last Quarter
Oct 15
New
Oct 22
First Quarter
Oct 29
Full

Hourly Weather History & Observations

Time (EET) Temp. Heat Index Dew Point Humidity Pressure Visibility Wind Dir Wind Speed Gust Speed Precip Events Conditions
12:00 AM 82.4 °F 81.4 °F 53.6 °F 37% 29.80 in - North 11.5 mph - N/A   Clear
1:00 AM 82.4 °F 81.7 °F 55.4 °F 39% 29.80 in - North 11.5 mph - N/A   Clear
2:00 AM 80.6 °F 81.5 °F 60.8 °F 51% 29.80 in - North 12.7 mph - N/A   Clear
3:00 AM 80.6 °F 80.8 °F 57.2 °F 45% 29.83 in - North 11.5 mph - N/A   Clear
4:00 AM 80.6 °F 80.8 °F 57.2 °F 45% 29.83 in - North 12.7 mph - N/A   Clear
5:00 AM 78.8 °F - 55.4 °F 44% 29.83 in 6.2 mi North 10.4 mph - N/A   Partly Cloudy
6:00 AM 78.8 °F - 59.0 °F 51% 29.83 in 6.2 mi North 10.4 mph - N/A   Partly Cloudy
7:00 AM 82.4 °F 82.0 °F 57.2 °F 42% 29.86 in 6.2 mi North 12.7 mph - N/A   Partly Cloudy
8:00 AM 84.2 °F 83.5 °F 57.2 °F 40% 29.86 in 6.2 mi North 16.1 mph - N/A   Partly Cloudy
9:00 AM 86.0 °F 84.2 °F 53.6 °F 33% 29.86 in - North 17.3 mph - N/A   Clear
10:00 AM 89.6 °F 87.7 °F 55.4 °F 31% 29.86 in - NNE 15.0 mph - N/A   Clear
11:00 AM 93.2 °F - 50.0 °F 23% 29.86 in - NNE 12.7 mph - N/A   Clear
12:00 PM 93.2 °F - 51.8 °F 24% 29.83 in 6.2 mi NNE 15.0 mph - N/A   Partly Cloudy
1:00 PM 95.0 °F - 51.8 °F 23% 29.83 in 6.2 mi NNE 12.7 mph - N/A   Partly Cloudy
2:00 PM 93.2 °F 90.8 °F 53.6 °F 26% 29.80 in 6.2 mi NNE 15.0 mph - N/A   Partly Cloudy
3:00 PM 93.2 °F - 50.0 °F 23% 29.80 in 6.2 mi NNE 15.0 mph - N/A   Partly Cloudy
4:00 PM 91.4 °F - 48.2 °F 23% 29.80 in 6.2 mi North 17.3 mph - N/A   Partly Cloudy
5:00 PM 89.6 °F - 46.4 °F 22% 29.80 in 6.2 mi North 12.7 mph - N/A   Partly Cloudy
6:00 PM 87.8 °F - 42.8 °F 21% 29.83 in 6.2 mi NNW 9.2 mph - N/A   Scattered Clouds
7:00 PM 87.8 °F - 44.6 °F 22% 29.83 in 6.2 mi North 10.4 mph - N/A   Scattered Clouds
8:00 PM 86.0 °F - 46.4 °F 25% 29.83 in 6.2 mi West 11.5 mph - N/A   Partly Cloudy
9:00 PM 86.0 °F - 46.4 °F 25% 29.83 in - North 11.5 mph - N/A   Clear
10:00 PM 86.0 °F - 44.6 °F 23% 29.86 in - NNW 5.8 mph - N/A   Clear
11:00 PM 84.2 °F 82.8 °F 53.6 °F 35% 29.83 in - North 9.2 mph - N/A   Clear